Retour au catalogue

STARLINK-5482

ActifCommunicationsSSO
NORAD 56358·PAYLOAD·🇺🇸 United States

Lancé Apr 27, 2023 depuis Vandenberg Space Force Base

Loading…

Prochains Passages (prochaines 24 heures)

TLE

FraisSource: CelesTrak SupGP

Époque: Sep 14, 2026, 22:25 UTC

1 56358C 23058AT  26257.93451389  .00421560  00000+0  25571-1 0  2574
2 56358  97.2853 252.1235 0001970  89.0555 333.4009 15.10417502    11

Suivez STARLINK-5482 en temps réel avec AllMySat

Download on the App Store